EW3614 Weather Reports


Display with metric or nautical units.
time (UTC)temp
F
wind
direction
speed
MPH
gust
MPH
rain 1hr
in
rain 24hr
in
rain mn
in
humidity
%
barometer
mb
20260507104506 39 253 0.0 0.0 0.00 0.64 0.01 95 948.5
20260507103004 39 253 0.0 0.0 0.00 0.64 0.01 95 948.6
20260507101507 40 253 0.0 0.0 0.00 0.64 0.01 94 948.4
20260507100001 0 253 0.0 0.0 0.00 0.64 0.01 94 948.3
20260507094605 40 253 0.0 3.0 0.00 0.64 0.01 94 948.5
20260507093057 0 275 0.0 6.0 0.00 0.64 0.01 95 948.5
20260507091556 39 349 0.0 0.0 0.00 0.64 0.01 95 948.5
20260507090059 39 283 0.0 6.0 0.00 0.64 0.01 95 948.4
20260507084559 39 25 0.0 4.0 0.00 0.64 0.01 95 948.7
20260507083052 39 232 0.0 0.0 0.00 0.64 0.01 95 948.7
20260507081551 0 259 1.0 7.0 0.00 0.64 0.01 96 948.7
20260507080104 39 13 0.0 5.0 0.00 0.64 0.01 96 948.6
20260507074545 39 96 0.0 0.0 0.00 0.64 0.01 96 948.4
20260507073050 39 96 0.0 0.0 0.00 0.64 0.01 96 948.4
20260507071541 40 96 0.0 0.0 0.00 0.64 0.01 96 948.2
20260507070040 0 96 0.0 0.0 0.00 0.64 0.01 96 948.2
20260507064538 40 96 0.0 0.0 0.00 0.66 0.01 96 948.2
20260507063036 40 96 0.0 0.0 0.00 0.66 0.01 96 948.5
20260507061535 40 96 0.0 0.0 0.00 0.66 0.01 96 948.5
20260507060032 40 96 0.0 0.0 0.00 0.66 0.01 95 948.4
20260507054536 0 96 0.0 0.0 0.00 0.78 0.01 96 948.7
20260507053029 40 184 0.0 3.0 0.01 0.78 0.01 96 948.8
20260507051529 41 240 0.0 2.0 0.01 0.78 0.01 96 948.5
20260507050028 41 15 0.0 5.0 0.01 0.78 0.01 96 948.7
20260507044522 41 30 0.0 5.0 0.01 0.83 0.01 96 948.8
20260507043024 0 345 0.0 3.0 0.00 0.82 0.00 96 948.7
20260507041519 41 355 0.0 1.0 0.00 0.82 0.00 96 948.8
20260507040017 41 355 0.0 0.0 0.00 0.82 0.00 96 948.7
20260507034514 42 15 0.0 0.0 0.00 0.82 0.82 96 948.9
20260507033012 42 15 0.0 0.0 0.00 0.82 0.82 96 949.0
20260507031512 42 15 0.0 0.0 0.01 0.82 0.82 96 948.8
20260507030010 42 15 0.0 0.0 0.01 0.82 0.82 96 949.0
20260507024512 0 15 0.0 0.0 0.02 0.82 0.82 96 949.0
20260507023008 42 15 0.0 0.0 0.03 0.82 0.82 96 949.1
20260507021506 42 15 0.0 0.0 0.03 0.81 0.81 96 949.1
20260507020006 42 14 0.0 0.0 0.03 0.81 0.81 96 949.3
20260507014504 42 15 0.0 0.0 0.02 0.80 0.80 96 949.3
20260507013006 0 16 0.0 2.0 0.02 0.79 0.79 96 949.1
20260507011601 43 38 0.0 0.0 0.02 0.78 0.78 96 949.1
20260507010104 0 38 0.0 0.0 0.02 0.78 0.78 96 948.8
20260507004605 43 5 0.0 0.0 0.03 0.78 0.78 96 948.6
20260507003057 43 5 0.0 0.0 0.02 0.77 0.77 96 948.6
20260507001556 43 5 0.0 0.0 0.01 0.76 0.76 96 948.2
20260507000054 43 5 0.0 3.0 0.01 0.76 0.76 96 948.1
20260506234554 0 360 0.0 0.0 0.00 0.75 0.75 96 947.6
20260506233107 44 5 0.0 0.0 0.00 0.75 0.75 96 947.7
20260506231555 44 5 0.0 0.0 0.00 0.75 0.75 96 947.6
20260506230049 44 5 0.0 1.0 0.00 0.75 0.75 96 947.4
20260506224545 45 5 0.0 3.0 0.00 0.75 0.75 96 947.2
20260506223046 0 5 0.0 5.0 0.00 0.75 0.75 96 947.0
20260506221541 46 355 0.0 2.0 0.01 0.75 0.75 96 946.9
20260506220040 46 18 0.0 3.0 0.01 0.75 0.75 96 946.8
20260506214542 47 36 0.0 0.0 0.03 0.75 0.75 97 946.8
20260506213048 46 36 0.0 0.0 0.06 0.75 0.75 97 946.9
20260506211536 46 36 0.0 5.0 0.06 0.74 0.74 97 946.8
20260506210034 46 24 0.0 7.0 0.09 0.74 0.74 96 946.9
20260506204532 47 229 0.0 0.0 0.07 0.78 0.72 97 946.7
20260506203033 47 229 0.0 0.0 0.04 0.75 0.69 96 946.7
20260506201527 48 229 0.0 2.0 0.03 0.74 0.68 96 946.5
20260506200023 0 229 0.0 0.0 0.00 0.71 0.65 96 946.5
20260506194521 49 229 0.0 0.0 0.00 0.71 0.65 97 946.6
20260506193018 49 229 0.0 1.0 0.00 0.71 0.65 97 946.7
20260506191517 49 229 2.0 6.0 0.01 0.71 0.65 96 946.7
20260506190015 51 229 3.0 5.0 0.04 0.71 0.65 97 946.8
20260506184522 0 229 0.0 0.0 0.06 0.71 0.65 97 946.8
20260506183019 51 229 0.0 2.0 0.08 0.71 0.65 98 946.8
20260506181514 50 229 0.0 8.0 0.09 0.69 0.63 96 947.4
20260506180007 52 217 0.0 0.0 0.11 0.67 0.61 97 947.1
20260506174504 52 217 0.0 0.0 0.12 0.65 0.59 96 947.5
20260506173004 54 217 0.0 0.0 0.13 0.63 0.56 97 947.7
20260506171504 54 216 0.0 5.0 0.12 0.60 0.54 97 947.6
20260506170004 54 216 0.0 4.0 0.10 0.56 0.50 97 947.5
20260506164614 54 216 1.0 7.0 0.08 0.53 0.47 97 947.5
20260506163103 54 205 1.0 5.0 0.06 0.50 0.44 97 947.7
20260506161557 54 203 3.0 8.0 0.06 0.48 0.42 97 947.9
20260506154558 54 209 1.0 7.0 0.06 0.45 0.39 97 948.2
20260506153110 54 223 2.0 8.0 0.06 0.44 0.38 97 948.5
20260506151549 0 218 2.0 7.0 0.06 0.42 0.36 97 948.6
20260506150057 53 222 2.0 10.0 0.06 0.41 0.35 97 948.8
20260506144555 53 211 2.0 6.0 0.05 0.39 0.33 97 948.8
20260506143045 53 232 1.0 6.0 0.05 0.38 0.32 97 948.8
20260506141543 53 204 2.0 4.0 0.05 0.36 0.30 97 949.0
20260506140042 52 203 0.0 4.0 0.06 0.35 0.28 96 949.1
20260506134541 52 198 0.0 4.0 0.07 0.34 0.28 96 949.2
20260506133042 52 198 0.0 0.0 0.07 0.33 0.27 97 949.1
20260506131541 52 198 0.0 0.0 0.05 0.31 0.25 96 949.1
20260506130037 52 198 0.0 0.0 0.04 0.28 0.23 96 949.4
20260506124535 0 198 0.0 0.0 0.02 0.27 0.21 96 949.5
20260506123034 52 198 0.0 0.0 0.01 0.26 0.20 96 949.7
20260506121533 51 198 0.0 0.0 0.01 0.26 0.20 96 949.7
20260506120037 52 197 0.0 3.0 0.00 0.25 0.19 96 949.8
20260506114530 51 197 0.0 0.0 0.00 0.25 0.19 96 949.6
20260506113037 51 196 0.0 0.0 0.00 0.25 0.19 96 949.6
20260506111528 51 196 0.0 0.0 0.00 0.25 0.19 96 949.6
20260506110025 0 196 0.0 1.0 0.00 0.25 0.19 96 949.5